This demonstration page uses our WeatherBlox Daily Observations layout. Learn more.

Left ArrowRight Arrow

41.86663, -103.66717

Hourly Observations for June 9, 2021

Temp ( °F °C ) Dew Point ( °F °C ) Humidity (%) Winds ( mph kmh ) Pressure ( in mb ) Visibility ( mi km ) Precip ( " mm )
12:53 am 00:53 Clear 74 23.3 47 8.3 38 38 NE 14 22 29.77 1008 10 16 0.00 0.00
1:53 am 01:53 Clear 69 20.6 48 8.9 47 47 VRB 3 6 29.78 1009 10 16 N/A
2:53 am 02:53 Clear 65 18.3 50 10 59 59 NE 3 6 29.81 1009 10 16 N/A
3:53 am 03:53 Clear 62 16.7 49 9.4 62 62 N N/A 29.81 1010 10 16 N/A
4:53 am 04:53 Clear 61 16.1 51 10.6 70 70 SE 7 11 29.85 1011 10 16 N/A
5:53 am 05:53 Sunny 59 15 51 10.6 75 75 E 8 13 29.88 1012 10 16 N/A
6:53 am 06:53 Sunny 66 18.9 53 11.7 63 63 ESE 3 6 29.90 1012 10 16 N/A
7:53 am 07:53 Sunny 71 21.7 52 11.1 51 51 S 3 6 29.91 1013 10 16 N/A
8:53 am 08:53 Sunny 75 23.9 52 11.1 45 45 VRB 5 7 29.92 1013 10 16 N/A
9:53 am 09:53 Sunny 79 26.1 54 12.2 42 42 ESE 6 9 29.91 1013 10 16 N/A
10:53 am 10:53 Sunny 82 27.8 56 13.3 41 41 VRB 5 7 29.91 1013 10 16 N/A
11:53 am 11:53 Sunny 88 31.1 55 12.8 33 33 undefined N/A 29.89 1012 10 16 N/A
12:53 pm 12:53 Sunny 90 32.2 54 12.2 29 29 VRB 6 9 29.89 1012 10 16 N/A
1:53 pm 13:53 Sunny 91 32.8 57 13.9 32 32 SE 8 13 29.88 1012 10 16 N/A
2:53 pm 14:53 Sunny 92 33.3 60 15.6 34 34 E 12 19 29.87 1011 10 16 N/A
3:53 pm 15:53 Sunny 94 34.4 53 11.7 25 25 ESE 12 19 29.85 1011 10 16 N/A
4:53 pm 16:53 Sunny 93 33.9 57 13.9 30 30 ESE 16 26 29.84 1011 10 16 N/A
5:53 pm 17:53 Sunny 91 32.8 55 12.8 30 30 SE 17 28 29.85 1011 10 16 N/A
6:53 pm 18:53 Sunny 89 31.7 55 12.8 31 31 ESE 15 24 29.83 1010 10 16 N/A
7:53 pm 19:53 Sunny 84 28.9 55 12.8 37 37 SE 9 15 29.84 1011 10 16 N/A
8:53 pm 20:53 Clear 78 25.6 56 13.3 47 47 ESE 9 15 29.85 1011 10 16 N/A
9:53 pm 21:53 Clear 76 24.4 56 13.3 50 50 ESE 9 15 29.86 1011 10 16 N/A
10:53 pm 22:53 Clear 73 22.8 59 15 62 62 ESE 9 15 29.87 1011 10 16 N/A
11:53 pm 23:53 Clear 71 21.7 61 16.1 71 71 ESE 8 13 29.85 1011 10 16 N/A

Powered by AerisWeather